�������ċp�F�����K�X���j�^�v���󋵏��
Date,Time,�ċp�F�����K�X���j�^(cps),����,����(m/s)
2022/05/04,00:00,1.4,�쐼,5.0
2022/05/04,00:10,1.4,�쐼,6.5
2022/05/04,00:20,1.5,�쐼,5.9
2022/05/04,00:30,1.4,��쐼,4.7
2022/05/04,00:40,1.5,�쐼,3.0
2022/05/04,00:50,1.5,�쐼,2.5
2022/05/04,01:00,1.5,��쐼,2.5
2022/05/04,01:10,1.5,��쐼,3.4
2022/05/04,01:20,1.4,��쐼,2.9
2022/05/04,01:30,1.5,��,2.3
2022/05/04,01:40,1.5,��,3.1
2022/05/04,01:50,1.5,��,3.8
2022/05/04,02:00,1.5,��,4.5
2022/05/04,02:10,1.4,��,4.8
2022/05/04,02:20,1.5,��,5.7
2022/05/04,02:30,1.6,��,5.5
2022/05/04,02:40,1.5,��,4.5
2022/05/04,02:50,1.4,��,4.1
2022/05/04,03:00,1.5,��,4.4
2022/05/04,03:10,1.4,��쐼,4.2
2022/05/04,03:20,1.5,��쐼,3.9
2022/05/04,03:30,1.4,��쐼,3.8
2022/05/04,03:40,1.5,��,5.3
2022/05/04,03:50,1.5,��,5.8
2022/05/04,04:00,1.4,��,6.9
2022/05/04,04:10,1.5,��,7.2
2022/05/04,04:20,1.5,��,7.5
2022/05/04,04:30,1.5,��,8.2
2022/05/04,04:40,1.5,��,8.6
2022/05/04,04:50,1.4,��,9.3
2022/05/04,05:00,1.4,��,9.2
2022/05/04,05:10,1.5,��,9.2
2022/05/04,05:20,1.4,��,9.2
2022/05/04,05:30,1.5,��쓌,8.4
2022/05/04,05:40,1.4,��,8.7
2022/05/04,05:50,1.6,��쓌,8.6
2022/05/04,06:00,1.5,��,8.5
2022/05/04,06:10,1.4,��,7.6
2022/05/04,06:20,1.4,��쓌,8.3
2022/05/04,06:30,1.5,��,7.7
2022/05/04,06:40,1.5,��,8.5
2022/05/04,06:50,1.6,��,8.8
2022/05/04,07:00,1.5,��,9.5
2022/05/04,07:10,1.4,��,10.0
2022/05/04,07:20,1.4,��,9.2
2022/05/04,07:30,1.4,��쓌,9.9
2022/05/04,07:40,1.5,��쓌,9.6
2022/05/04,07:50,1.5,��,9.2
2022/05/04,08:00,1.5,��쓌,8.7
2022/05/04,08:10,1.5,��쓌,9.7
2022/05/04,08:20,1.5,��,10.2
2022/05/04,08:30,1.5,��쓌,11.7
2022/05/04,08:40,1.5,��,11.0
2022/05/04,08:50,1.6,��,10.8
2022/05/04,09:00,1.5,��쓌,10.5
2022/05/04,09:10,1.6,��,9.9
2022/05/04,09:20,1.5,��,13.0
2022/05/04,09:30,1.5,��,11.3
2022/05/04,09:40,1.5,��,10.4
2022/05/04,09:50,1.4,��,11.1
2022/05/04,10:00,1.4,��,11.1
2022/05/04,10:10,1.5,��,12.2
2022/05/04,10:20,1.5,��쓌,11.6
2022/05/04,10:30,1.5,��,11.0
2022/05/04,10:40,1.5,��쓌,10.7
2022/05/04,10:50,1.4,��쓌,11.7
2022/05/04,11:00,1.5,��,9.0
2022/05/04,11:10,1.5,��쓌,12.0
2022/05/04,11:20,1.4,��쓌,12.4
2022/05/04,11:30,1.4,��,11.4
2022/05/04,11:40,1.5,��쓌,11.4
2022/05/04,11:50,1.5,��,10.0
2022/05/04,12:00,1.5,��,8.5
2022/05/04,12:10,1.5,��,9.4
2022/05/04,12:20,1.6,��,6.7
2022/05/04,12:30,1.5,��,7.6
2022/05/04,12:40,1.5,��쓌,6.9
2022/05/04,12:50,1.5,��,8.2
2022/05/04,13:00,1.5,��,8.8
2022/05/04,13:10,1.5,��,9.5
2022/05/04,13:20,1.5,��,8.7
2022/05/04,13:30,1.4,��,9.4
2022/05/04,13:40,1.6,��,8.3
2022/05/04,13:50,1.5,��,9.6
2022/05/04,14:00,1.5,��,9.8
2022/05/04,14:10,1.5,��,8.8
2022/05/04,14:20,1.5,��,10.4
2022/05/04,14:30,1.4,��,9.3
2022/05/04,14:40,1.4,��,10.5
2022/05/04,14:50,1.5,��,9.4
2022/05/04,15:00,1.4,��,8.9
2022/05/04,15:10,1.5,��,7.6
2022/05/04,15:20,1.5,��,8.4
2022/05/04,15:30,1.4,��,6.0
2022/05/04,15:40,1.5,��,7.4
2022/05/04,15:50,1.5,��,6.9
2022/05/04,16:00,1.4,��쓌,4.5
2022/05/04,16:10,1.5,��,5.5
2022/05/04,16:20,1.5,��쐼,2.8
2022/05/04,16:30,1.5,���쐼,3.6
2022/05/04,16:40,1.5,��,5.2
2022/05/04,16:50,1.4,�쐼,4.8
2022/05/04,17:00,1.4,�쐼,4.0
2022/05/04,17:10,1.5,���쐼,4.7
2022/05/04,17:20,1.5,���쐼,4.5
2022/05/04,17:30,1.5,���쐼,3.1
2022/05/04,17:40,1.5,���쐼,3.1
2022/05/04,17:50,1.4,���쐼,3.7
2022/05/04,18:00,1.5,��,4.0
2022/05/04,18:10,1.4,��,3.6
2022/05/04,18:20,1.4,��,4.8
2022/05/04,18:30,1.4,��,5.1
2022/05/04,18:40,1.5,��,3.8
2022/05/04,18:50,1.4,��,4.0
2022/05/04,19:00,1.5,���쐼,2.0
2022/05/04,19:10,1.5,���쐼,1.7
2022/05/04,19:20,1.5,�쐼,0.8
2022/05/04,19:30,1.4,��쐼,1.5
2022/05/04,19:40,1.5,��쐼,1.1
2022/05/04,19:50,1.5,-,CALM
2022/05/04,20:00,1.4,�쐼,2.3
2022/05/04,20:10,1.4,�쐼,3.3
2022/05/04,20:20,1.4,��,3.6
2022/05/04,20:30,1.4,���쐼,3.7
2022/05/04,20:40,1.5,�쐼,2.9
2022/05/04,20:50,1.4,�쐼,4.8
2022/05/04,21:00,1.4,�쐼,4.2
2022/05/04,21:10,1.4,�쐼,4.1
2022/05/04,21:20,1.4,���쐼,5.4
2022/05/04,21:30,1.5,���쐼,5.9
2022/05/04,21:40,1.4,���쐼,7.1
2022/05/04,21:50,1.4,���쐼,4.4
2022/05/04,22:00,1.5,���쐼,4.3
2022/05/04,22:10,1.5,�쐼,3.7
2022/05/04,22:20,1.4,���쐼,3.0
2022/05/04,22:30,1.5,�쐼,2.3
2022/05/04,22:40,1.4,�쐼,3.3
2022/05/04,22:50,1.5,��쐼,3.0
2022/05/04,23:00,1.4,��쐼,2.9
2022/05/04,23:10,1.4,�쐼,3.7
2022/05/04,23:20,1.5,���쐼,3.4
2022/05/04,23:30,1.5,�쐼,1.9
2022/05/04,23:40,1.4,��,0.9
2022/05/04,23:50,1.5,�쐼,1.1
